Weather History for CWMM - August, 2012

Change the Weather History Date:

Wednesday, August 15, 2012

  Actual Average (CYXX) Record (CYXX)
Temperature  
Mean Temperature 73 °F -  
Max Temperature 91 °F 74 °F 93 °F (2010)
Min Temperature 55 °F 53 °F 50 °F (1996)
Cooling Degree Days 8    
Growing Degree Days 23 (Base 50)    
Moisture  
Dew Point 52 °F    
Average Humidity 55    
Maximum Humidity 94    
Minimum Humidity 16    
Precipitation  
Precipitation 0.00 in - - ()
Sea Level Pressure  
Sea Level Pressure 29.95 in    
Wind  
Wind Speed 2 mph ()    
Max Wind Speed 10 mph    
Max Gust Speed -    
Averages and records for this station are not official NWS values.
T = Trace of Precipitation, MM = Missing Value Source: Averaged Metar Reports

Daily Weather History Graph

Daily Weather History Graph

Search for Another Location

Airport or City:

Trip Planner

Search our weather history database for the weather conditions in past years. The results will help you decide how hot, cold, wet, or windy it might be!

Date:

Astronomy

Aug. 15, 2012 Rise Set
Actual Time 6:03 AM PDT 8:25 PM PDT
Civil Twilight 5:28 AM PDT 9:00 PM PDT
Nautical Twilight 4:43 AM PDT 9:44 PM PDT
Astronomical Twilight 3:52 AM PDT 10:35 PM PDT
Moon 4:00 AM PDT (8/15) 7:04 PM PDT (8/15)
Length of Visible Light 15h 32m
Length of Day
14h 22m
Waning Crescent, 4% of the Moon is Illuminated
Aug 15
Waning Crescent
Aug 17
New
Aug 24
First Quarter
Aug 31
Full
Sep 8
Last Quarter

Hourly Weather History & Observations

Time (PDT) Temp. Dew Point Humidity Pressure Visibility Wind Dir Wind Speed Gust Speed Precip Events Conditions
12:00 AM 63.7 °F 59.5 °F 86% 29.95 in - WNW 1.2 mph - N/A   Unknown
1:00 AM 61.5 °F 57.9 °F 88% 29.96 in - Calm Calm - N/A   Unknown
2:00 AM 61.2 °F 58.5 °F 91% 29.96 in - Calm Calm - N/A   Unknown
3:00 AM 60.3 °F 58.1 °F 93% 29.97 in - West 1.2 mph - N/A   Unknown
4:00 AM 60.6 °F 58.5 °F 93% 29.98 in - NW 2.3 mph - N/A   Unknown
5:00 AM 59 °F 57 °F 92% 29.97 in - WNW 3.5 mph - -  
5:00 AM 59.2 °F 57.4 °F 94% 29.97 in - WNW 3.5 mph - N/A   Unknown
6:00 AM 58.1 °F 55.8 °F 92% 29.99 in - ESE 2.3 mph - N/A   Unknown
7:00 AM 60.3 °F 57.9 °F 92% 29.99 in - West 1.2 mph - N/A   Unknown
8:00 AM 66.6 °F 61.2 °F 83% 30.00 in - WSW 1.2 mph - N/A   Unknown
9:00 AM 72.5 °F 62.4 °F 71% 30.00 in - South 1.2 mph - N/A   Unknown
10:00 AM 77.5 °F 58.8 °F 52% 29.99 in - SW 2.3 mph - N/A   Unknown
11:00 AM 83 °F 47 °F 18% 29.98 in - North 4.6 mph - -  
11:00 AM 82.9 °F 46.6 °F 28% 29.98 in - North 4.6 mph - N/A   Unknown
12:00 PM 85.5 °F 42.6 °F 22% 29.97 in - NNE 6.9 mph - N/A   Unknown
1:00 PM 87.1 °F 43.7 °F 22% 29.96 in - NNW 3.5 mph - N/A   Unknown
2:00 PM 89.4 °F 41.7 °F 19% 29.95 in - WNW 2.3 mph - N/A   Unknown
3:00 PM 90.5 °F 46.0 °F 21% 29.93 in - WSW 4.6 mph - N/A   Unknown
4:00 PM 91.2 °F 46.2 °F 21% 29.91 in - West 4.6 mph - N/A   Unknown
5:00 PM 89 °F 49 °F 16% 29.90 in - West 10.4 mph - -  
5:00 PM 88.9 °F 49.5 °F 26% 29.90 in - West 10.4 mph - N/A   Unknown
6:00 PM 85.6 °F 46.8 °F 26% 29.89 in - West 9.2 mph - N/A   Unknown
7:00 PM 83.5 °F 46.4 °F 27% 29.88 in - West 6.9 mph - N/A   Unknown
8:00 PM 81.0 °F 46.4 °F 30% 29.89 in - West 2.3 mph - N/A   Unknown
9:00 PM 72.0 °F 51.8 °F 49% 29.90 in - Calm Calm - N/A   Unknown
10:00 PM 68.5 °F 53.8 °F 59% 29.90 in - WNW 1.2 mph - N/A   Unknown
11:00 PM 67 °F 54 °F 53% 29.91 in - East 1.2 mph - -  
11:00 PM 66.7 °F 53.8 °F 63% 29.91 in - East 1.2 mph - N/A   Unknown